FW3788 Weather Reports


Display with metric or nautical units.
time (UTC)temp
F
wind
direction
speed
MPH
gust
MPH
rain 1hr
in
rain 24hr
in
rain mn
in
humidity
%
barometer
mb
20260506013518 56 286 1.0 6.0 0.00 0.01 0.00 64 1014.2
20260506013019 56 293 0.0 6.0 0.00 0.01 0.00 63 1014.2
20260506012018 57 292 0.0 4.0 0.00 0.01 0.00 62 1014.3
20260506011529 57 289 0.0 5.0 0.00 0.01 0.00 62 1014.3
20260506011022 57 298 0.0 9.0 0.00 0.01 0.00 61 1014.3
20260506010518 57 307 1.0 9.0 0.00 0.01 0.00 61 1014.3
20260506010019 58 282 1.0 6.0 0.00 0.01 0.00 61 1014.4
20260506005519 58 339 0.0 7.0 0.00 0.05 0.00 58 1014.4
20260506005018 59 322 2.0 7.0 0.00 0.05 0.00 58 1014.3
20260506004533 59 343 0.0 4.0 0.00 0.05 0.00 59 1014.4
20260506004018 58 284 0.0 4.0 0.00 0.05 0.00 59 1014.4
20260506003519 58 301 0.0 9.0 0.00 0.05 0.00 60 1014.4
20260506003023 58 294 2.0 9.0 0.00 0.05 0.00 61 1014.3
20260506002518 58 276 0.0 7.0 0.00 0.05 0.00 59 1014.3
20260506002019 57 308 0.0 7.0 0.00 0.05 0.00 61 1014.3
20260506001522 57 322 2.0 7.0 0.00 0.05 0.00 60 1014.3
20260506001019 57 299 0.0 6.0 0.00 0.05 0.00 61 1014.3
20260506000519 57 303 1.0 6.0 0.00 0.05 0.00 61 1014.3
20260506000023 57 301 0.0 5.0 0.00 0.05 0.00 61 1014.3
20260505235519 56 328 2.0 6.0 0.00 0.05 0.00 63 1014.3
20260505235019 56 274 1.0 6.0 0.00 0.05 0.00 63 1014.3
20260505234519 56 329 1.0 6.0 0.00 0.05 0.00 64 1014.3
20260505234018 56 291 0.0 7.0 0.00 0.05 0.00 64 1014.4
20260505233521 56 266 1.0 7.0 0.00 0.05 0.00 64 1014.4
20260505233018 56 293 1.0 10.0 0.00 0.05 0.00 63 1014.4
20260505232519 56 332 1.0 10.0 0.00 0.05 0.00 62 1014.5
20260505232018 57 299 2.0 8.0 0.00 0.05 0.00 61 1014.5
20260505231525 56 287 0.0 9.0 0.00 0.05 0.00 62 1014.4
20260505231118 56 299 2.0 10.0 0.00 0.05 0.00 63 1014.3
20260505230519 56 314 3.0 11.0 0.00 0.05 0.00 62 1014.4
20260505230023 57 346 2.0 9.0 0.00 0.05 0.00 61 1014.3
20260505225518 56 333 3.0 9.0 0.00 0.05 0.00 62 1014.4
20260505225024 56 328 1.0 7.0 0.00 0.05 0.00 62 1014.3
20260505224519 56 303 1.0 7.0 0.00 0.05 0.00 62 1014.3
20260505224018 56 275 1.0 8.0 0.00 0.05 0.00 61 1014.5
20260505223520 56 322 4.0 10.0 0.00 0.05 0.00 60 1014.4
20260505223018 56 288 2.0 10.0 0.00 0.05 0.00 61 1014.4
20260505222018 58 326 3.0 9.0 0.00 0.05 0.00 58 1014.5
20260505221520 58 314 1.0 6.0 0.00 0.05 0.00 59 1014.5
20260505221019 57 266 0.0 7.0 0.00 0.05 0.00 60 1014.5
20260505220518 57 293 2.0 7.0 0.00 0.05 0.00 58 1014.6
20260505220018 57 320 0.0 3.0 0.00 0.05 0.00 60 1014.6
20260505215621 57 320 0.0 6.0 0.00 0.05 0.00 60 1014.6
20260505215022 57 319 1.0 6.0 0.00 0.05 0.00 60 1014.7
20260505214619 56 297 0.0 9.0 0.00 0.05 0.00 64 1014.6
20260505214017 56 293 1.0 9.0 0.00 0.05 0.00 62 1014.7
20260505213522 56 316 1.0 4.0 0.00 0.05 0.00 62 1014.8
20260505213019 55 305 0.0 6.0 0.00 0.05 0.00 61 1014.9
20260505212519 55 308 1.0 7.0 0.00 0.05 0.00 63 1014.9
20260505212020 55 281 0.0 7.0 0.00 0.05 0.00 64 1014.9
20260505211521 54 320 0.0 6.0 0.00 0.05 0.00 65 1015.0
20260505211019 54 319 0.0 6.0 0.00 0.05 0.00 64 1014.9
20260505210520 54 319 0.0 4.0 0.00 0.05 0.00 65 1014.9
20260505210018 54 322 0.0 4.0 0.00 0.05 0.00 65 1014.9
20260505205522 54 322 0.0 6.0 0.00 0.05 0.00 64 1015.0
20260505205017 54 322 3.0 6.0 0.00 0.05 0.00 65 1015.0
20260505204518 54 311 0.0 4.0 0.00 0.05 0.00 64 1015.0
20260505204020 54 326 0.0 6.0 0.00 0.05 0.00 66 1015.0
20260505203518 53 326 3.0 6.0 0.00 0.05 0.00 66 1014.9
20260505203026 54 292 0.0 6.0 0.00 0.05 0.00 65 1015.0
20260505202519 54 274 0.0 5.0 0.00 0.05 0.00 64 1015.0
20260505202019 54 209 0.0 0.0 0.00 0.05 0.00 64 1015.0
20260505201518 54 209 0.0 3.0 0.00 0.05 0.00 63 1014.9
20260505201019 54 208 0.0 3.0 0.00 0.05 0.00 64 1014.9
20260505200518 54 258 0.0 0.0 0.00 0.05 0.00 66 1014.9
20260505200019 53 257 0.0 0.0 0.00 0.05 0.00 66 1014.9
20260505195521 53 258 0.0 0.0 0.00 0.05 0.00 66 1014.9
20260505195018 53 258 0.0 0.0 0.00 0.05 0.00 66 1014.9
20260505194522 53 258 0.0 0.0 0.00 0.05 0.00 66 1015.0
20260505194018 53 258 0.0 0.0 0.00 0.05 0.00 68 1015.0
20260505193522 53 292 0.0 0.0 0.00 0.05 0.00 68 1015.0
20260505193130 53 292 0.0 0.0 0.00 0.05 0.00 67 1015.0
20260505192619 53 292 0.0 0.0 0.00 0.05 0.00 68 1015.0
20260505192018 53 292 0.0 0.0 0.00 0.05 0.00 66 1015.0
20260505191519 53 292 0.0 0.0 0.00 0.05 0.00 66 1014.9
20260505191018 53 292 0.0 3.0 0.00 0.05 0.00 65 1014.8
20260505190518 53 292 0.0 3.0 0.00 0.05 0.00 66 1014.8
20260505190032 53 290 0.0 0.0 0.00 0.05 0.00 66 1014.8
20260505185519 53 290 0.0 0.0 0.00 0.05 0.00 66 1014.7
20260505185019 52 290 0.0 0.0 0.00 0.05 0.00 67 1014.7
20260505184524 52 301 0.0 2.0 0.00 0.05 0.00 67 1014.8
20260505183519 52 301 0.0 4.0 0.00 0.05 0.00 67 1014.9
20260505183022 51 299 0.0 3.0 0.00 0.05 0.00 66 1014.8
20260505182518 51 299 0.0 2.0 0.00 0.05 0.00 67 1014.8
20260505182018 51 301 0.0 8.0 0.00 0.05 0.00 67 1014.7
20260505181520 51 300 2.0 8.0 0.00 0.05 0.00 66 1014.8
20260505181019 52 288 3.0 7.0 0.00 0.05 0.00 64 1014.7
20260505180519 52 289 0.0 5.0 0.00 0.05 0.00 64 1014.6
20260505180026 53 291 0.0 6.0 0.00 0.05 0.00 63 1014.6
20260505175518 53 297 1.0 6.0 0.00 0.05 0.00 62 1014.5
20260505175018 53 288 1.0 6.0 0.00 0.05 0.00 62 1014.4
20260505174518 53 190 0.0 0.0 0.00 0.05 0.00 61 1014.3
20260505174019 53 190 0.0 0.0 0.00 0.05 0.00 59 1014.3
20260505173522 54 190 0.0 0.0 0.00 0.05 0.00 58 1014.2
20260505173019 54 190 0.0 4.0 0.00 0.05 0.00 59 1014.1
20260505172519 54 190 0.0 4.0 0.00 0.05 0.00 60 1014.1
20260505172019 53 190 0.0 4.0 0.00 0.05 0.00 64 1014.0
20260505171519 53 293 0.0 4.0 0.00 0.05 0.00 67 1014.1
20260505171019 53 292 0.0 4.0 0.00 0.05 0.00 65 1014.1
20260505170518 53 254 0.0 0.0 0.00 0.05 0.00 68 1014.1
20260505170019 52 254 0.0 3.0 0.00 0.05 0.00 68 1014.1
20260505165518 51 254 0.0 3.0 0.00 0.05 0.00 69 1014.2
20260505165019 51 184 0.0 3.0 0.00 0.05 0.00 68 1014.2
20260505164522 51 184 0.0 3.0 0.00 0.05 0.00 71 1014.2
20260505164019 50 184 0.0 0.0 0.00 0.05 0.00 69 1014.1
20260505163519 50 184 0.0 8.0 0.00 0.05 0.00 69 1014.0
20260505163019 50 184 2.0 8.0 0.00 0.05 0.00 70 1013.9
20260505162519 50 184 2.0 8.0 0.00 0.05 0.00 70 1013.9
20260505162019 50 178 0.0 0.0 0.00 0.05 0.00 74 1013.8
20260505161519 49 178 0.0 1.0 0.00 0.05 0.00 73 1013.9
20260505161020 49 178 0.0 5.0 0.00 0.05 0.00 77 1013.9
20260505160519 49 178 0.0 6.0 0.00 0.05 0.00 75 1013.8
20260505153023 47 199 0.0 2.0 0.00 0.05 0.00 85 1013.8
20260505152518 47 199 0.0 0.0 0.00 0.05 0.00 87 1013.7
20260505152024 47 199 0.0 0.0 0.00 0.05 0.00 88 1013.6
20260505151519 47 199 0.0 0.0 0.00 0.05 0.00 87 1013.6
20260505151018 46 199 0.0 0.0 0.00 0.05 0.00 88 1013.5
20260505150519 46 199 0.0 0.0 0.00 0.05 0.00 88 1013.5
20260505140518 44 198 0.0 0.0 0.00 0.05 0.00 91 1012.9
20260505124519 43 320 0.0 0.0 0.00 0.05 0.00 90 1013.0
20260505124020 43 320 0.0 0.0 0.00 0.05 0.00 90 1013.0
20260505123520 44 320 0.0 0.0 0.00 0.05 0.00 89 1013.0
20260505123020 44 320 0.0 0.0 0.00 0.05 0.00 89 1012.9
20260505122519 44 320 0.0 0.0 0.00 0.05 0.00 89 1012.9
20260505122022 44 320 0.0 0.0 0.00 0.05 0.00 89 1012.9
20260505121519 44 320 0.0 0.0 0.00 0.05 0.00 89 1013.0
20260505121019 44 320 0.0 0.0 0.00 0.05 0.00 89 1013.0
20260505120518 44 320 0.0 0.0 0.00 0.05 0.00 89 1013.0
20260505120033 44 320 0.0 0.0 0.00 0.05 0.00 88 1013.0
20260505115519 45 320 0.0 0.0 0.00 0.05 0.00 88 1012.9
20260505115019 45 320 0.0 0.0 0.00 0.05 0.00 88 1013.0
20260505114519 45 320 0.0 0.0 0.00 0.05 0.00 88 1012.9
20260505114019 46 320 0.0 0.0 0.00 0.05 0.00 88 1012.9
20260505113618 46 320 0.0 0.0 0.00 0.05 0.00 88 1012.8
20260505113018 46 320 0.0 0.0 0.00 0.05 0.00 88 1012.9
20260505112522 46 320 0.0 0.0 0.00 0.05 0.00 88 1012.9
20260505112019 46 320 0.0 0.0 0.00 0.05 0.00 88 1012.9
20260505111528 46 320 0.0 0.0 0.00 0.05 0.00 88 1013.0
20260505111022 46 320 0.0 0.0 0.00 0.05 0.00 88 1012.9
20260505110522 46 320 0.0 0.0 0.00 0.05 0.00 88 1012.9
20260505102019 46 320 0.0 0.0 0.00 0.05 0.00 87 1013.1
20260505101519 46 320 0.0 0.0 0.00 0.05 0.00 87 1013.1
20260505101019 46 320 0.0 0.0 0.00 0.05 0.00 87 1013.1
20260505100519 46 320 0.0 0.0 0.00 0.05 0.00 88 1013.1
20260505100027 46 320 0.0 0.0 0.00 0.05 0.00 88 1013.1
20260505095518 46 320 0.0 0.0 0.00 0.05 0.00 88 1013.2
20260505095018 46 320 0.0 0.0 0.00 0.05 0.00 87 1013.2
20260505094520 46 320 0.0 0.0 0.00 0.05 0.00 88 1013.2
20260505094019 46 320 0.0 0.0 0.00 0.05 0.00 88 1013.2
20260505093519 46 320 0.0 0.0 0.00 0.05 0.00 88 1013.2
20260505093019 46 320 0.0 0.0 0.00 0.05 0.00 88 1013.2
20260505092519 46 320 0.0 0.0 0.00 0.05 0.00 87 1013.2
20260505092019 46 320 0.0 0.0 0.00 0.05 0.00 86 1013.3
20260505091521 46 320 0.0 0.0 0.00 0.05 0.00 86 1013.2
20260505091019 46 320 0.0 0.0 0.00 0.05 0.00 86 1013.3
20260505090519 46 320 0.0 0.0 0.00 0.05 0.00 86 1013.2
20260505090019 46 320 0.0 0.0 0.00 0.05 0.00 85 1013.3
20260505085521 46 320 0.0 0.0 0.00 0.05 0.00 86 1013.3
20260505085020 46 320 0.0 0.0 0.00 0.05 0.00 85 1013.3
20260505084526 46 320 0.0 0.0 0.00 0.05 0.00 84 1013.3
20260505084018 47 320 0.0 0.0 0.00 0.05 0.00 85 1013.3
20260505083522 47 320 0.0 0.0 0.00 0.05 0.00 84 1013.3
20260505083032 47 320 0.0 0.0 0.00 0.05 0.00 84 1013.4
20260505082519 47 320 0.0 0.0 0.00 0.05 0.00 83 1013.3
20260505082019 47 320 0.0 0.0 0.00 0.05 0.00 83 1013.4
20260505081523 46 320 0.0 0.0 0.00 0.05 0.00 82 1013.5
20260505081019 46 320 0.0 0.0 0.00 0.05 0.00 83 1013.6
20260505080518 47 320 0.0 0.0 0.00 0.05 0.00 84 1013.6
20260505080033 46 320 0.0 0.0 0.00 0.05 0.00 83 1013.6
20260505075523 46 320 0.0 0.0 0.00 0.05 0.00 83 1013.7
20260505075019 47 320 0.0 0.0 0.00 0.05 0.00 83 1013.7
20260505074621 46 320 0.0 0.0 0.00 0.05 0.00 83 1013.7
20260505074019 46 320 0.0 0.0 0.00 0.05 0.00 82 1013.6
20260505073519 46 320 0.0 0.0 0.00 0.05 0.00 82 1013.7
20260505073033 46 320 0.0 0.0 0.00 0.05 0.00 83 1013.7
20260505072519 46 320 0.0 0.0 0.00 0.05 0.00 84 1013.7
20260505072019 46 320 0.0 0.0 0.00 0.05 0.00 84 1013.6
20260505071521 46 320 0.0 0.0 0.00 0.05 0.00 84 1013.7
20260505071019 46 320 0.0 0.0 0.00 0.05 0.00 84 1013.7
20260505070523 47 320 0.0 0.0 0.00 0.05 0.00 84 1013.6
20260505070020 47 320 0.0 0.0 0.00 0.05 0.00 83 1013.7
20260505065520 47 320 0.0 0.0 0.00 0.05 0.05 83 1013.6
20260505065019 47 320 0.0 0.0 0.00 0.05 0.05 84 1013.5
20260505064519 47 320 0.0 0.0 0.00 0.05 0.05 83 1013.5
20260505064022 47 320 0.0 0.0 0.00 0.05 0.05 81 1013.5
20260505063519 47 320 0.0 0.0 0.00 0.05 0.05 81 1013.5
20260505063022 47 320 0.0 0.0 0.00 0.05 0.05 80 1013.5
20260505062519 47 320 0.0 0.0 0.00 0.05 0.05 79 1013.5
20260505062020 47 320 0.0 0.0 0.00 0.05 0.05 81 1013.4
20260505061527 47 320 0.0 0.0 0.00 0.05 0.05 80 1013.5
20260505061020 47 320 0.0 0.0 0.00 0.05 0.05 80 1013.5
20260505060620 47 320 0.0 0.0 0.00 0.05 0.05 78 1013.5
20260505060040 47 320 0.0 0.0 0.00 0.05 0.05 75 1013.7
20260505055519 47 320 0.0 0.0 0.00 0.05 0.05 74 1013.7
20260505055020 47 320 0.0 0.0 0.00 0.05 0.05 75 1013.7
20260505054522 47 320 0.0 0.0 0.00 0.05 0.05 75 1013.7
20260505054020 47 320 0.0 0.0 0.00 0.05 0.05 74 1013.8
20260505053620 47 320 0.0 0.0 0.00 0.05 0.05 74 1013.7
20260505053020 47 320 0.0 5.0 0.00 0.05 0.05 75 1013.7
20260505052519 47 320 0.0 5.0 0.00 0.05 0.05 75 1013.8
20260505052019 47 318 0.0 5.0 0.00 0.05 0.05 75 1013.9
20260505051520 48 317 0.0 7.0 0.00 0.05 0.05 77 1013.8
20260505051019 48 316 0.0 7.0 0.00 0.05 0.05 77 1013.9
20260505050519 48 287 1.0 5.0 0.00 0.05 0.05 79 1014.0
20260505041520 48 284 0.0 0.0 0.00 0.05 0.05 80 1013.2
20260505041020 48 284 0.0 0.0 0.00 0.05 0.05 81 1013.2
20260505040526 49 284 0.0 0.0 0.00 0.05 0.05 82 1013.2
20260505040023 48 284 0.0 0.0 0.00 0.05 0.05 82 1013.1
20260505035522 49 284 0.0 0.0 0.00 0.05 0.05 84 1013.0
20260505035020 49 284 0.0 0.0 0.00 0.05 0.05 85 1013.1
20260505034519 49 284 0.0 0.0 0.00 0.05 0.05 87 1013.0
20260505034022 49 284 0.0 0.0 0.00 0.05 0.05 87 1013.0
20260505033520 49 284 0.0 0.0 0.00 0.05 0.05 87 1013.0
20260505033020 49 284 0.0 0.0 0.00 0.05 0.05 87 1012.9
20260505032520 49 284 0.0 0.0 0.00 0.05 0.05 86 1013.0
20260505032023 49 284 0.0 0.0 0.00 0.05 0.05 86 1012.9
20260505031519 49 284 0.0 0.0 0.00 0.05 0.05 86 1012.9
20260505031019 49 284 0.0 0.0 0.00 0.05 0.05 86 1012.9
20260505030519 49 284 0.0 0.0 0.00 0.05 0.05 85 1012.8
20260505030019 49 284 0.0 0.0 0.00 0.05 0.05 85 1012.8
20260505025522 49 284 0.0 0.0 0.00 0.05 0.05 83 1012.8
20260505025019 49 284 0.0 0.0 0.00 0.05 0.05 86 1012.8
20260505024520 49 284 0.0 0.0 0.00 0.05 0.05 86 1012.8
20260505024019 49 284 0.0 0.0 0.00 0.05 0.05 85 1012.8
20260505023519 49 284 0.0 0.0 0.00 0.05 0.05 85 1012.7
20260505023021 50 284 0.0 0.0 0.00 0.05 0.05 85 1012.7
20260505022519 50 284 0.0 0.0 0.00 0.05 0.05 84 1012.7
20260505022020 50 284 0.0 0.0 0.00 0.05 0.05 81 1012.7
20260505021520 49 284 0.0 0.0 0.00 0.05 0.05 78 1012.6
20260505021019 50 284 0.0 0.0 0.00 0.05 0.05 82 1012.7
20260505020519 50 284 0.0 0.0 0.01 0.05 0.05 84 1012.7
20260505020030 50 284 0.0 0.0 0.01 0.05 0.05 85 1012.7
20260505015519 50 284 0.0 0.0 0.01 0.05 0.05 84 1012.7
20260505015020 49 284 0.0 0.0 0.02 0.05 0.05 80 1012.7
20260505014532 49 284 0.0 0.0 0.02 0.05 0.05 83 1012.8
20260505014019 50 284 0.0 0.0 0.02 0.05 0.05 84 1012.9